Weather Roundup
Issued by NWS Corpus Christi, TX

Home | Current Version | Previous Version | Text Only | Print | Product List | Glossary On
Versions: 1 2 3 4 5 6 7 8 9 10 11 12 13 14 15 16 17 18 19 20 21 22 23 24 25 26 27 28 29 30 31 32 33 34 35 36 37 38 39 40 41 42 43 44 45 46 47 48 49 50
000
ASUS44 KCRP 252010
HRRCRP

SOUTH TEXAS REGIONAL WEATHER ROUNDUP
NATIONAL WEATHER SERVICE CORPUS CHRISTI TX
300 PM CDT THU AUG 25 2016


TXZ229>244-252100-
...CORPUS CHRISTI AREA OBSERVATIONS...

CITY           SKY/WX    TMP DP  RH WIND       PRES   REMARKS
CORPUS CHRISTI MOSUNNY   96  71  44 SE12G18   29.99F HX 103
NAS CORPUS CHR MOSUNNY   92  78  63 SE15      29.99F HX 107
ROCKPORT       SUNNY     92  73  53 SE12      30.00F HX 100
KINGSVILLE NAS MOSUNNY   94  75  54 SE8       29.97F HX 105
ALICE          SUNNY     95  71  45 SE12      29.97F HX 102
FALFURRIAS     MOSUNNY   95  69  42 SE6       29.96F HX 101
$$

...VICTORIA AREA OBSERVATIONS...

CITY           SKY/WX    TMP DP  RH WIND       PRES   REMARKS
VICTORIA       MOSUNNY   87  75  67 S14       30.02F HX  96
BEEVILLE       FAIR      90  77  64 E9        30.01F HX 102
PLEASANTON     SUNNY     91  70  49 S6        30.03F HX  97
SAN ANTONIO    MOSUNNY   89  69  51 S8        30.04F HX  93
$$

...LAREDO AREA OBSERVATIONS...

CITY           SKY/WX    TMP DP  RH WIND       PRES   REMARKS
LAREDO         SUNNY     96  64  34 E13G18    29.97F HX  98
COTULLA        SUNNY     94  66  39 SE14      30.00F HX  97
DEL RIO        SUNNY     90  67  46 SE10G20   30.00F HX  93
MCALLEN        MOSUNNY  101  66  31 SE12      29.95F HX 105
HEBBRONVILLE   SUNNY     94  62  34 SE12      30.00F HX  94
$$

...OTHER TEXAS OBSERVATIONS...

CITY           SKY/WX    TMP DP  RH WIND       PRES   REMARKS
BROWNSVILLE    MOSUNNY   95  73  48 SE14G25   29.97F HX 104
HOUSTON        TSTM      75  74  96 E9        30.05F FOG
COL. STATION   CLOUDY    91  72  53 SE7       30.04F HX  98
AUSTIN         MOSUNNY   92  72  51 VRB6      30.03F HX  99
WACO           MOSUNNY   92  72  51 S9        30.04F HX  99
FORT WORTH     PTSUNNY   93  67  42 VRB3      30.03F HX  96
WICHITA FALLS  MOSUNNY   98  66  34 SE17      30.02F HX 101
LUBBOCK        CLOUDY    83  67  58 SE8       30.12F
EL PASO        PTSUNNY   83  55  38 S3        30.10F
$$

...MARINE OBSERVATIONS...

STATION/POSITION TIME  SKY/WX   TEMP    WIND        PRES    VSBY  WAVE   SWELL
                                AIR SEA DIR/SP/G                  HT/PER HT/PER
                 (UTC)          (F)     (DEG/KT/KT) (MB)    (MI)  (FT/S) (FT/S)
PORT ARANSAS     2000            85 89  120/  8/  9 1016.3F
BUOY 90 E PORT A 1950            85 86   90/  8/ 10 1016.1F         2/ 4   2/ 4
BUOY 45 SE BAFFI 1950            85 87  110/  8/ 10 1015.6F         1/ 5   2/ 5
BUOY 200 E PT IS 1950            86 87   50/  8/ 10 1014.5F         1/ 5   2/ 5
BUOY 15 E GALVES 1950            86 87   90/  6/  6 1016.7F         1/ 5   2/ 5
$$




USA.gov is the U.S. government's official web portal to all federal, state and local government web resources and services.